Regional Weather Roundup
Issued by NWS

Home | Current Version | Previous Version | Graphics & Text | Print | Product List | Glossary Off
Versions: 1 2 3 4 5 6 7 8 9 10 11 12 13 14 15 16 17 18 19 20 21 22 23 24 25 26 27 28 29 30 31 32 33 34 35 36 37 38 39 40 41 42 43 44 45 46 47 48 49 50

000
ASUS43 KMKX 252321
RWRWI

WISCONSIN REGIONAL WEATHER ROUNDUP
NATIONAL WEATHER SERVICE MILWAUKEE/SULLIVAN WI
600 PM CDT THU AUG 25 2016

NOTE: "FAIR" INDICATES FEW OR NO CLOUDS BELOW 12,000 FEET WITH NO
SIGNIFICANT WEATHER AND/OR OBSTRUCTIONS TO VISIBILITY.

WIZ001-002-006>008-014>016-023>028-260000-
NORTHWEST WISCONSIN

CITY           SKY/WX    TMP DP  RH WIND       PRES   REMARKS
SUPERIOR ARPT  CLOUDY    67  56  66 W9        30.00R
ASHLAND        CLOUDY    69  54  58 W12G25    30.00R
HAYWARD        CLOUDY    68  52  56 VRB7G17   30.04R
SIREN          CLOUDY    67  52  57 NW10G17   30.05S
CUMBERLAND     PTSUNNY   68  50  52 W17       30.05S
RICE LAKE      MOSUNNY   69  53  57 W12G18    30.06R
CHETEK         NOT AVBL
LADYSMITH      MOSUNNY   71  54  54 W10G20    30.04S
EAU CLAIRE     SUNNY     74  55  51 W12       30.03R
MENOMONIE      SUNNY     73  55  52 W10       30.05R
NEW RICHMOND   SUNNY     69  53  55 W13G18    30.07R
OSCEOLA        MOSUNNY   70  54  57 NW13      30.09R
$$

WIZ003>005-009-010-017-018-260000-
NORTH CENTRAL WISCONSIN

CITY           SKY/WX    TMP DP  RH WIND       PRES   REMARKS
MANITOWISH WTR NOT AVBL
ARBOR VITAE    PTSUNNY   72  55  55 W9G17     30.00R
WOODRUFF       PTSUNNY   72  55  55 W9G17     30.00R
RHINELANDER    SUNNY     73  55  53 W14G22    30.00R
EAGLE RIVER    MOSUNNY   72  51  47 W14G23    29.98R
LAND O LAKES   MOSUNNY   73  52  48 W12G22    29.99R
PHILLIPS       MOSUNNY   69  55  61 W8G16     30.01S
TOMAHAWK       SUNNY     71  52  50 W12G17    30.01S
MEDFORD        SUNNY     70  55  57 W8        30.02S
MERRILL        SUNNY     73  54  51 W9G18     30.01R
$$

WIZ029-030-035-036-043>047-260000-
CENTRAL WISCONSIN

CITY           SKY/WX    TMP DP  RH WIND       PRES   REMARKS
WAUSAU         SUNNY     74  55  51 W12       30.00R
MOSINEE        MOSUNNY   73  57  56 MISG      30.02S
MARSHFIELD     SUNNY     74  57  55 W12       30.02S
STEVENS POINT  SUNNY     74  57  55 W10G20    30.01F
WAUPACA        SUNNY     78  57  48 W8        30.01S
WAUTOMA        SUNNY     78  61  55 W8        30.03R HX  80
WISC RAPIDS    MOSUNNY   78  60  53 W14G22    30.03S
CAMP DOUGLAS   MOSUNNY   77  63  61 SW13      30.03S
$$

WIZ011>013-019>022-031-037>040-048>050-260000-
NORTHEAST WISCONSIN

CITY           SKY/WX    TMP DP  RH WIND       PRES   REMARKS
ANTIGO         MOSUNNY   73  56  55 W15G23    30.01R
SHAWANO        SUNNY     79  57  48 W8        29.98S HX  80
OCONTO         NOT AVBL
STURGEON BAY   SUNNY     77  62  59 SW10      29.97R
GREEN BAY      SUNNY     77  64  64 SW9       29.98S
MANITOWOC      CLOUDY    78  59  51 W7        30.00S
APPLETON       MOSUNNY   77  57  50 SW9       29.99S
CLINTONVILLE   SUNNY     77  55  47 W7        29.99S
OSHKOSH        SUNNY     77  59  53 W7        30.01R
$$

WIZ032>034-041-042-053>061-260000-
SOUTHWEST WISCONSIN

CITY           SKY/WX    TMP DP  RH WIND       PRES   REMARKS
LA CROSSE      SUNNY     77  61  57 W6        30.03F
SPARTA         MOSUNNY   77  60  56 W7        30.04F
VIROQUA        SUNNY     74  62  67 SW8       30.07S
BOSCOBEL       CLOUDY    78  62  57 SW7       30.06F HX  80
PRAIRIE DU CHI CLOUDY    77  59  52 W5        30.06S
PLATTEVILLE    CLOUDY    73  65  77 CALM      30.08F
$$

WIZ056-057-062-063-064-067-068-260000-
SOUTH CENTRAL WISCONSIN

CITY           SKY/WX    TMP DP  RH WIND       PRES   REMARKS
REEDSBURG      NOT AVBL
BARABOO/DELLS  SUNNY     74  61  61 W8        30.05F
LONE ROCK      CLOUDY    76  62  62 W8        30.06S
MINERAL POINT  CLOUDY    73  63  68 W5        30.08F
MADISON        CLOUDY    75  61  61 VRB6      30.05S
MIDDLETON      CLOUDY    75  64  67 W6        30.06S
WATERTOWN      CLOUDY    75  63  66 W3        30.04S
MONROE         MOSUNNY   73  63  68 NW5       30.07S
JANESVILLE     PTSUNNY   79  63  57 NW7       30.05S HX  80
$$

WIZ051-052-058>065-066-070>072-260000-
SOUTHEAST WISCONSIN

CITY           SKY/WX    TMP DP  RH WIND       PRES   REMARKS
MILWAUKEE      CLOUDY    82  57  42 W9        30.03S HX  82
WAUKESHA       SUNNY     75  57  53 W9        30.05R
MILWAUKEE/TIMM SUNNY     79  52  38 W9        30.04R
RACINE         CLOUDY    79  60  52 W5        30.04S HX  80
BURLINGTON     CLOUDY    75  60  58 NW5       30.04F
KENOSHA        CLOUDY    77  65  66 W6        30.04R
FOND DU LAC    CLOUDY    77  59  53 W8G17     30.02S
SHEBOYGAN      CLOUDY    77  58  51 W9        30.01R
WEST BEND      CLOUDY    73  57  56 W7        30.03S
JUNEAU         CLOUDY    73  62  68 SW7       30.05F
$$

LSZ147-162-260000-
LAKE SUPERIOR

STATION/POSITION TIME  TEMP    WIND        PRES    WAVE
                       AIR SEA DIR/SP/G            HT/PER
                 (UTC) (F)     (DEG/KT/KT) (MB)    (FT/S)
W MID LAKE BUOY  2250   68 68  250/ 21/ 25 1012.2R   5/ 6
DEVILS ISLAND    2300   67     240/ 21/ 27 1014.1R
PORT WING        2240   69     250/ 12/ 17 1015.2R
SAXON HARBOR     2240   72     250/  8/ 13 1014.9R
$$

LMZ867-665-643>646-260000-
LAKE MICHIGAN

STATION/POSITION TIME  TEMP    WIND        PRES    WAVE
                       AIR SEA DIR/SP/G            HT/PER
                 (UTC) (F)     (DEG/KT/KT) (MB)    (FT/S)
CHAMBERS ISLAND  2200   77     180/  4/  9 1013.2F
S GREEN BAY BUOY 2230   76 73  240/ 10/ 12 1014.1F
N MID LAKE BUOY  2250   72 70  210/ 16/ 19 1012.9F   2/ 3
NORTHPORT PIER   2200   79     220/  3/  9 1013.2F
SISTER BAY       2137   78     230/ 15/ 18   N/A
ALGOMA LAKESHORE 2100          300/  6/ 11   N/A
KEWAUNEE LAKESHO 2200   78     250/  6/  9 1014.5F
SHEBOYGAN LAKESH 2300   77     250/  9/ 12 1015.4R
PORT WASHINGTON  2200   81     280/  6/ 14 1016.9S
ATWATER BUOY     2300   67 49  180/  4/  4   N/A
MILWAUKEE LAKESH 2310   68     130/  3/  5   N/A
S MID LAKE BUOY  2250   74 75  180/  2/  2 1016.2R   1/ 4
KENOSHA   LAKESH 2300   74     250/  2/  8 1016.3S
$$

TC  - TEMPERATURE IN CELSIUS
VSB - VISIBILITY IN STATUTE MILES
WCI - WIND CHILL INDEX
HX  - HEAT INDEX





USA.gov is the U.S. government's official web portal to all federal, state and local government web resources and services.